Location: Stara Lesna
(49.1528°N, 20.2911°E)
Time: 13:24:43
(UTC+02:00)

Gbstr 26 Del rocket - Pass Details

Date: 21 September 2019
Orbit: 493 x 1264 km, 51.8° (Epoch: 14 October)

Event Time Altitude Azimuth Distance (km) Brightness Sun altitude
Exits shadow 04:26:02 15° 290° (WNW) 2,856 6.0 -19.3°
Maximum altitude 04:33:01 82° 206° (SSW) 1,269 4.5 -18.3°
Drops below altitude 10° 04:40:47 10° 119° (ESE) 3,083 7.1 -17.1°
Sets 04:43:25 0° 119° (ESE) 3,965 7.8 -16.7°
